This is the latest recevied weather packets stored in our database for station/object W5ZYX. If no packets are shown the sender has not sent any weather packets the latest 10 day(s).
| Time | Temp. | Humidity | Pressure | Rain* | Wind** | Luminosity | Snow |
|---|---|---|---|---|---|---|---|
| 1777910135 | 23.33° C | 65% | 1016 hPa | 0 mm | - | - | - |
| 1777909836 | 22.78° C | 65% | 1016.2 hPa | 0 mm | - | - | - |
| 1777909556 | 22.78° C | 64% | 1016.3 hPa | 0 mm | - | - | - |
| 1777909234 | 22.22° C | 66% | 1016.3 hPa | 0 mm | - | - | - |
| 1777908939 | 22.22° C | 65% | 1016.3 hPa | 0 mm | - | - | - |
| 1777908656 | 22.22° C | 65% | 1016.1 hPa | 0 mm | - | - | - |
| 1777908338 | 22.22° C | 63% | 1016.2 hPa | 0 mm | - | - | - |
| 1777908038 | 22.22° C | 67% | 1016.3 hPa | 0 mm | - | - | - |
| 1777907751 | 21.67° C | 65% | 1016.2 hPa | 0 mm | - | - | - |
| 1777907437 | 21.67° C | 66% | 1016.3 hPa | 0 mm | - | - | - |
| 1777907139 | 21.67° C | 67% | 1016.2 hPa | 0 mm | - | - | - |
| 1777906851 | 21.67° C | 68% | 1016.3 hPa | 0 mm | - | - | - |
| 1777906535 | 21.67° C | 68% | 1016.4 hPa | 0 mm | - | - | - |
| 1777906237 | 21.11° C | 70% | 1016.4 hPa | 0 mm | - | - | - |
| 1777905949 | 21.11° C | 72% | 1016.5 hPa | 0 mm | - | - | - |
| 1777905638 | 20.56° C | 72% | 1016.5 hPa | 0 mm | - | - | - |
| 1777905335 | 20° C | 74% | 1016.5 hPa | 0 mm | - | - | - |
| 1777905045 | 20° C | 74% | 1016.5 hPa | 0 mm | - | - | - |
| 1777904738 | 20° C | 73% | 1016.4 hPa | 0 mm | - | - | - |
| 1777904438 | 19.44° C | 74% | 1016.4 hPa | 0 mm | - | - | - |
| 1777904155 | 19.44° C | 75% | 1016.5 hPa | 0 mm | - | - | - |
| 1777903837 | 18.89° C | 75% | 1016.4 hPa | 0 mm | - | - | - |
| 1777903538 | 18.89° C | 76% | 1016.4 hPa | 0 mm | - | - | - |
| 1777903259 | 18.33° C | 78% | 1016.4 hPa | 0 mm | - | - | - |
| 1777902937 | 18.33° C | 78% | 1016.4 hPa | 0 mm | - | - | - |
* Rain latest hour (hover to see other rain measurements)
** Current wind speed in m/s (hover to see current wind gust speed)